Haleyville, AL

8:18 PM CST on December 07, 2016 (GMT -0600)
Haleyville

Weather History for K1M4 - October, 2014

Change the Weather History Date:

Wednesday, October 8, 2014

  Actual Average (KJFX) Record (KJFX)
Temperature  
Mean Temperature 72 °F -  
Max Temperature 82 °F 74 °F 89 °F (2014)
Min Temperature 61 °F 49 °F 32 °F (1991)
Cooling Degree Days 6    
Growing Degree Days 22 (Base 50)    
Moisture  
Dew Point 66 °F    
Average Humidity 89    
Maximum Humidity 100    
Minimum Humidity 67    
Precipitation  
Precipitation 0.25 in - - ()
Sea Level Pressure  
Sea Level Pressure 30.15 in    
Wind  
Wind Speed 4 mph (WSW)    
Max Wind Speed 12 mph    
Max Gust Speed 21 mph    
Visibility 6 miles    
Events Fog , Rain , Thunderstorm    
Averages and records for this station are not official NWS values.
T = Trace of Precipitation, MM = Missing Value Source: NWS Daily Summary

Daily Weather History Graph

Daily Weather History Graph

Search for Another Location

Airport or City:

Trip Planner

Search our weather history database for the weather conditions in past years. The results will help you decide how hot, cold, wet, or windy it might be!

Date:

Astronomy

Oct. 08, 2014 Rise Set
Actual Time 6:50 AM CDT 6:25 PM CDT
Civil Twilight 6:25 AM CDT 6:50 PM CDT
Nautical Twilight 5:56 AM CDT 7:19 PM CDT
Astronomical Twilight 5:26 AM CDT 7:48 PM CDT
Moon 6:41 PM CDT 6:55 AM CDT
Length of Visible Light 12h 25m
Length of Day
11h 34m
Full, 100% of the Moon is Illuminated
Oct 8
Full
Oct 15
Last Quarter
Oct 23
New
Oct 30
First Quarter
Nov 6
Full

Hourly Weather History & Observations

Time (CDT) Temp. Heat Index Dew Point Humidity Pressure Visibility Wind Dir Wind Speed Gust Speed Precip Events Conditions
12:56 AM 68.9 °F - 63.0 °F 81% 30.10 in 10.0 mi SW 6.9 mph - N/A   Clear
1:56 AM 68.9 °F - 63.0 °F 81% 30.11 in 10.0 mi WSW 6.9 mph - N/A   Clear
2:56 AM 70.0 °F - 63.9 °F 81% 30.10 in 10.0 mi WSW 9.2 mph - N/A   Mostly Cloudy
3:56 AM 70.0 °F - 63.9 °F 81% 30.11 in 10.0 mi WSW 8.1 mph - N/A   Mostly Cloudy
4:56 AM 68.9 °F - 63.9 °F 84% 30.14 in 10.0 mi West 5.8 mph - N/A   Scattered Clouds
5:56 AM 66.9 °F - 64.9 °F 93% 30.15 in 10.0 mi SW 3.5 mph - N/A   Partly Cloudy
6:56 AM 66.9 °F - 64.9 °F 93% 30.17 in 10.0 mi SW 3.5 mph - N/A   Mostly Cloudy
7:05 AM 66.2 °F - 64.4 °F 94% 30.13 in 10.0 mi SSW 4.6 mph - N/A   Scattered Clouds
7:56 AM 68.0 °F - 65.8 °F 93% 30.18 in 10.0 mi SSW 5.8 mph - N/A   Mostly Cloudy
8:56 AM 70.9 °F - 65.8 °F 84% 30.20 in 10.0 mi SW 5.8 mph - N/A   Scattered Clouds
9:11 AM 71.6 °F - 66.2 °F 83% 30.17 in 10.0 mi WSW 6.9 mph - N/A   Mostly Cloudy
9:56 AM 73.9 °F - 68.0 °F 82% 30.21 in 10.0 mi West 6.9 mph - N/A   Mostly Cloudy
10:11 AM 73.4 °F - 68.0 °F 83% 30.18 in 10.0 mi Variable 4.6 mph - N/A   Mostly Cloudy
10:56 AM 74.8 °F - 68.9 °F 82% 30.21 in 10.0 mi Calm Calm - N/A   Overcast
11:45 AM 75.2 °F - 69.8 °F 83% 30.18 in 10.0 mi WSW 4.6 mph - N/A   Mostly Cloudy
11:56 AM 77.9 °F - 70.0 °F 76% 30.21 in 10.0 mi SW 6.9 mph - N/A   Mostly Cloudy
12:49 PM 78.8 °F - 69.8 °F 74% 30.16 in 10.0 mi Calm Calm - N/A   Scattered Clouds
12:56 PM 79.9 °F - 70.0 °F 72% 30.18 in 10.0 mi SW 5.8 mph - N/A   Scattered Clouds
1:06 PM 80.6 °F 83.9 °F 69.8 °F 70% 30.15 in 10.0 mi WSW 6.9 mph - N/A   Mostly Cloudy
1:27 PM 82.4 °F 87.2 °F 71.6 °F 70% 30.14 in 10.0 mi SW 6.9 mph - N/A   Scattered Clouds
1:56 PM 81.9 °F 86.0 °F 70.9 °F 69% 30.17 in 10.0 mi Variable 6.9 mph - N/A   Mostly Cloudy
2:56 PM 81.9 °F 85.6 °F 70.0 °F 67% 30.16 in 10.0 mi Calm Calm - N/A   Partly Cloudy
3:56 PM 81.9 °F 85.6 °F 70.0 °F 67% 30.14 in 10.0 mi Variable 5.8 mph - N/A   Partly Cloudy
4:56 PM 81.0 °F 84.1 °F 68.9 °F 67% 30.13 in 10.0 mi Calm Calm - N/A   Clear
5:56 PM 77.0 °F - 70.9 °F 81% 30.15 in 10.0 mi Calm Calm - N/A   Clear
6:14 PM 75.2 °F - 71.6 °F 89% 30.13 in 4.0 mi Calm Calm - 0.01 in Rain Heavy Rain
6:36 PM 73.4 °F - 71.6 °F 94% 30.13 in 8.0 mi Calm Calm - 0.06 in Rain , Thunderstorm Light Thunderstorms and Rain
6:56 PM 68.9 °F - 64.9 °F 87% 30.19 in 10.0 mi NW 11.5 mph 20.7 mph 0.08 in Rain , Thunderstorm Light Thunderstorms and Rain
7:05 PM 66.2 °F - 64.4 °F 94% 30.16 in 2.5 mi NW 10.4 mph 19.6 mph 0.06 in Rain , Thunderstorm Heavy Thunderstorms and Rain
7:10 PM 66.2 °F - 64.4 °F 94% 30.15 in 1.2 mi NW 4.6 mph 19.6 mph 0.12 in Rain , Thunderstorm Heavy Thunderstorms and Rain
7:17 PM 66.2 °F - 64.4 °F 94% 30.14 in 2.0 mi Calm Calm - 0.14 in Rain , Thunderstorm Heavy Thunderstorms and Rain
7:20 PM 66.2 °F - 64.4 °F 94% 30.13 in 3.0 mi Calm Calm - 0.15 in Rain , Thunderstorm Heavy Thunderstorms and Rain
7:28 PM 66.2 °F - 66.2 °F 100% 30.13 in 4.0 mi Variable 3.5 mph - 0.16 in Rain , Thunderstorm Thunderstorms and Rain
7:43 PM 66.2 °F - 66.2 °F 100% 30.09 in 10.0 mi East 10.4 mph - 0.17 in Rain Light Rain
7:56 PM 65.8 °F - 64.9 °F 97% 30.12 in 10.0 mi Calm Calm - 0.17 in Rain Light Rain
8:56 PM 64.9 °F - 64.9 °F 100% 30.19 in 6.0 mi Calm Calm - 0.00 in   Clear
9:32 PM 64.4 °F - 64.4 °F 100% 30.15 in 1.2 mi Calm Calm - N/A   Clear
9:47 PM 64.4 °F - 64.4 °F 100% 30.15 in 1.5 mi Calm Calm - N/A   Clear
9:49 PM 64.4 °F - 64.4 °F 100% 30.15 in 1.0 mi Calm Calm - N/A   Clear
9:56 PM 63.0 °F - 63.0 °F 100% 30.18 in 0.8 mi Calm Calm - N/A   Clear
10:09 PM 64.4 °F - 64.4 °F 100% 30.15 in 1.2 mi Calm Calm - N/A   Clear
10:12 PM 64.4 °F - 64.4 °F 100% 30.15 in 2.0 mi Calm Calm - N/A   Clear
10:20 PM 62.6 °F - 62.6 °F 100% 30.15 in 4.0 mi Calm Calm - N/A   Clear
10:24 PM 64.4 °F - 64.4 °F 100% 30.15 in 1.5 mi Calm Calm - N/A   Clear
10:26 PM 62.6 °F - 62.6 °F 100% 30.15 in 0.8 mi Calm Calm - N/A   Clear
10:31 PM 62.6 °F - 62.6 °F 100% 30.15 in 0.2 mi Calm Calm - N/A Fog Fog
10:46 PM 62.6 °F - 62.6 °F 100% 30.14 in 0.8 mi Calm Calm - N/A   Clear
10:48 PM 62.6 °F - 62.6 °F 100% 30.14 in 1.5 mi Calm Calm - N/A   Clear
10:56 PM 61.9 °F - 61.9 °F 100% 30.18 in 0.8 mi Calm Calm - N/A   Clear
11:03 PM 62.6 °F - 62.6 °F 100% 30.14 in 0.5 mi Calm Calm - N/A Fog Fog
11:41 PM 62.6 °F - 62.6 °F 100% 30.14 in 1.0 mi Calm Calm - N/A   Clear
11:44 PM 62.6 °F - 62.6 °F 100% 30.14 in 2.0 mi Calm Calm - N/A   Clear
11:56 PM 61.9 °F - 61.9 °F 100% 30.17 in 6.0 mi Calm Calm - N/A   Clear